| time (UTC) | temp F | wind direction | speed MPH | gust MPH | rain 1hr in | rain 24hr in | rain mn in | humidity % | barometer mb |
| 20260503043839 | 54 | 37 | 0.0 | 0.0 | 0.00 | 0.00 | 0.00 | 42 | 956.1 |
| 20260503043336 | 55 | 34 | 0.0 | 0.0 | 0.00 | 0.00 | 0.00 | 41 | 956.1 |
| 20260503042832 | 55 | 38 | 0.0 | 0.0 | 0.00 | 0.00 | 0.00 | 40 | 955.8 |
| 20260503042329 | 56 | 42 | 0.0 | 0.0 | 0.00 | 0.00 | 0.00 | 41 | 955.9 |
| 20260503041825 | 57 | 39 | 0.0 | 0.0 | 0.00 | 0.00 | 0.00 | 40 | 955.9 |
| 20260503041323 | 57 | 42 | 0.0 | 0.0 | 0.00 | 0.00 | 0.00 | 40 | 955.7 |
| 20260503040821 | 57 | 61 | 0.0 | 0.0 | 0.00 | 0.00 | 0.00 | 40 | 955.9 |
| 20260503040318 | 58 | 60 | 0.0 | 0.0 | 0.00 | 0.00 | 0.00 | 40 | 956.0 |
| 20260503035815 | 58 | 46 | 0.0 | 0.0 | 0.00 | 0.00 | 0.00 | 39 | 956.0 |
| 20260503035312 | 58 | 45 | 0.0 | 0.0 | 0.00 | 0.00 | 0.00 | 37 | 956.0 |
| 20260503034809 | 58 | 39 | 0.0 | 0.0 | 0.00 | 0.00 | 0.00 | 37 | 956.1 |
| 20260503034306 | 59 | 36 | 0.0 | 0.0 | 0.00 | 0.00 | 0.00 | 37 | 956.2 |
| 20260503033803 | 60 | 42 | 0.0 | 0.0 | 0.00 | 0.00 | 0.00 | 35 | 956.0 |
| 20260503033301 | 60 | 41 | 0.0 | 0.0 | 0.00 | 0.00 | 0.00 | 33 | 956.2 |
| 20260503032759 | 62 | 40 | 0.0 | 0.0 | 0.00 | 0.00 | 0.00 | 32 | 956.0 |
| 20260503032257 | 62 | 45 | 0.0 | 0.0 | 0.00 | 0.00 | 0.00 | 32 | 956.0 |
| 20260503031754 | 63 | 53 | 0.0 | 0.0 | 0.00 | 0.00 | 0.00 | 31 | 955.9 |
| 20260503031252 | 64 | 48 | 0.0 | 0.0 | 0.00 | 0.00 | 0.00 | 30 | 955.9 |
| 20260503030748 | 64 | 45 | 0.0 | 0.0 | 0.00 | 0.00 | 0.00 | 30 | 955.7 |
| 20260503030245 | 64 | 45 | 0.0 | 0.0 | 0.00 | 0.00 | 0.00 | 29 | 955.9 |
| 20260503025741 | 64 | 47 | 0.0 | 0.0 | 0.00 | 0.00 | 0.00 | 28 | 955.8 |
| 20260503025239 | 65 | 40 | 0.0 | 0.0 | 0.00 | 0.00 | 0.00 | 28 | 955.9 |
| 20260503024736 | 65 | 37 | 0.0 | 0.0 | 0.00 | 0.00 | 0.00 | 27 | 956.0 |
| 20260503024233 | 66 | 48 | 0.0 | 0.0 | 0.00 | 0.00 | 0.00 | 27 | 955.9 |
| 20260503023730 | 66 | 20 | 0.0 | 0.0 | 0.00 | 0.00 | 0.00 | 26 | 956.0 |
| 20260503023227 | 67 | 35 | 0.0 | 0.0 | 0.00 | 0.00 | 0.00 | 26 | 955.8 |
| 20260503022722 | 67 | 74 | 0.0 | 0.0 | 0.00 | 0.00 | 0.00 | 25 | 955.8 |
| 20260503022217 | 68 | 187 | 1.0 | 1.0 | 0.00 | 0.00 | 0.00 | 25 | 956.0 |
| 20260503021714 | 68 | 29 | 0.0 | 0.0 | 0.00 | 0.00 | 0.00 | 25 | 955.8 |
| 20260503021210 | 68 | 348 | 0.0 | 1.0 | 0.00 | 0.00 | 0.00 | 24 | 956.0 |
| 20260503020708 | 69 | 339 | 1.0 | 2.0 | 0.00 | 0.00 | 0.00 | 24 | 956.0 |
| 20260503020205 | 69 | 342 | 1.0 | 1.0 | 0.00 | 0.00 | 0.00 | 24 | 956.1 |
| 20260503015702 | 69 | 242 | 1.0 | 2.0 | 0.00 | 0.00 | 0.00 | 23 | 956.0 |
| 20260503015159 | 69 | 324 | 0.0 | 1.0 | 0.00 | 0.00 | 0.00 | 24 | 955.8 |
| 20260503014654 | 69 | 332 | 1.0 | 1.0 | 0.00 | 0.00 | 0.00 | 23 | 956.0 |
| 20260503014153 | 69 | 251 | 3.0 | 3.0 | 0.00 | 0.00 | 0.00 | 22 | 956.1 |
| 20260503013649 | 70 | 314 | 0.0 | 1.0 | 0.00 | 0.00 | 0.00 | 22 | 956.1 |
| 20260503013147 | 70 | 256 | 3.0 | 5.0 | 0.00 | 0.00 | 0.00 | 22 | 956.4 |
| 20260503012644 | 70 | 279 | 3.0 | 3.0 | 0.00 | 0.00 | 0.00 | 23 | 956.3 |
| 20260503012141 | 70 | 335 | 1.0 | 2.0 | 0.00 | 0.00 | 0.00 | 23 | 956.5 |
| 20260503011637 | 69 | 230 | 2.0 | 3.0 | 0.00 | 0.00 | 0.00 | 26 | 956.3 |
| 20260503011135 | 69 | 356 | 0.0 | 0.0 | 0.00 | 0.00 | 0.00 | 27 | 956.2 |
| 20260503010631 | 69 | 129 | 1.0 | 1.0 | 0.00 | 0.00 | 0.00 | 27 | 956.4 |
| 20260503010128 | 70 | 346 | 2.0 | 2.0 | 0.00 | 0.00 | 0.00 | 27 | 956.3 |
| 20260503005625 | 70 | 32 | 0.0 | 1.0 | 0.00 | 0.00 | 0.00 | 26 | 956.4 |
| 20260503005123 | 70 | 237 | 1.0 | 2.0 | 0.00 | 0.00 | 0.00 | 26 | 956.4 |
| 20260503004619 | 70 | 211 | 3.0 | 3.0 | 0.00 | 0.00 | 0.00 | 26 | 956.5 |
| 20260503004118 | 70 | 221 | 1.0 | 1.0 | 0.00 | 0.00 | 0.00 | 26 | 956.5 |
| 20260503003614 | 70 | 311 | 1.0 | 2.0 | 0.00 | 0.00 | 0.00 | 27 | 956.7 |
| 20260503003111 | 70 | 342 | 1.0 | 1.0 | 0.00 | 0.00 | 0.00 | 27 | 956.6 |
| 20260503002608 | 71 | 252 | 1.0 | 2.0 | 0.00 | 0.00 | 0.00 | 27 | 956.7 |
| 20260503002104 | 71 | 294 | 3.0 | 3.0 | 0.00 | 0.00 | 0.00 | 27 | 956.8 |
| 20260503001600 | 73 | 258 | 3.0 | 5.0 | 0.00 | 0.00 | 0.00 | 26 | 957.0 |
| 20260503001058 | 73 | 28 | 0.0 | 0.0 | 0.00 | 0.00 | 0.00 | 26 | 957.1 |
| 20260503000555 | 74 | 233 | 3.0 | 3.0 | 0.00 | 0.00 | 0.00 | 25 | 957.2 |
| 20260503000052 | 73 | 148 | 2.0 | 2.0 | 0.00 | 0.00 | 0.00 | 26 | 957.0 |
| 20260502235549 | 72 | 257 | 1.0 | 1.0 | 0.00 | 0.00 | 0.00 | 26 | 957.6 |
| 20260502235047 | 71 | 263 | 1.0 | 2.0 | 0.00 | 0.00 | 0.00 | 28 | 957.7 |
| 20260502234542 | 71 | 284 | 1.0 | 2.0 | 0.00 | 0.00 | 0.00 | 27 | 957.6 |
| 20260502234041 | 71 | 251 | 1.0 | 2.0 | 0.00 | 0.00 | 0.00 | 27 | 957.7 |
| 20260502233540 | 73 | 228 | 3.0 | 3.0 | 0.00 | 0.00 | 0.00 | 27 | 957.8 |
| 20260502233038 | 74 | 42 | 0.0 | 0.0 | 0.00 | 0.00 | 0.00 | 27 | 957.8 |
| 20260502232534 | 73 | 143 | 2.0 | 3.0 | 0.00 | 0.00 | 0.00 | 26 | 957.9 |
| 20260502232031 | 73 | 212 | 1.0 | 1.0 | 0.00 | 0.00 | 0.00 | 27 | 957.9 |
| 20260502231528 | 73 | 192 | 1.0 | 2.0 | 0.00 | 0.00 | 0.00 | 27 | 958.0 |
| 20260502231026 | 73 | 175 | 2.0 | 2.0 | 0.00 | 0.00 | 0.00 | 27 | 958.1 |
| 20260502230524 | 73 | 233 | 2.0 | 2.0 | 0.00 | 0.00 | 0.00 | 26 | 958.2 |
| 20260502230022 | 73 | 348 | 2.0 | 3.0 | 0.00 | 0.00 | 0.00 | 27 | 958.4 |
| 20260502225517 | 73 | 132 | 1.0 | 2.0 | 0.00 | 0.00 | 0.00 | 25 | 958.5 |
| 20260502225015 | 73 | 243 | 3.0 | 3.0 | 0.00 | 0.00 | 0.00 | 26 | 958.6 |
| 20260502224511 | 73 | 119 | 2.0 | 3.0 | 0.00 | 0.00 | 0.00 | 26 | 958.6 |
| 20260502224008 | 73 | 143 | 1.0 | 1.0 | 0.00 | 0.00 | 0.00 | 26 | 958.7 |
| 20260502223506 | 73 | 210 | 0.0 | 1.0 | 0.00 | 0.00 | 0.00 | 27 | 958.7 |
| 20260502223004 | 72 | 211 | 2.0 | 2.0 | 0.00 | 0.00 | 0.00 | 26 | 958.8 |
| 20260502222501 | 72 | 112 | 1.0 | 2.0 | 0.00 | 0.00 | 0.00 | 26 | 958.9 |
| 20260502221956 | 72 | 153 | 2.0 | 2.0 | 0.00 | 0.00 | 0.00 | 26 | 959.2 |
| 20260502221453 | 72 | 153 | 2.0 | 2.0 | 0.00 | 0.00 | 0.00 | 26 | 959.2 |
| 20260502220950 | 71 | 120 | 1.0 | 2.0 | 0.00 | 0.00 | 0.00 | 27 | 959.3 |
| 20260502220445 | 71 | 257 | 5.0 | 6.0 | 0.00 | 0.00 | 0.00 | 27 | 959.5 |
| 20260502215943 | 71 | 242 | 2.0 | 2.0 | 0.00 | 0.00 | 0.00 | 27 | 959.7 |
| 20260502215440 | 70 | 217 | 3.0 | 5.0 | 0.00 | 0.00 | 0.00 | 28 | 959.4 |
| 20260502214937 | 71 | 172 | 3.0 | 5.0 | 0.00 | 0.00 | 0.00 | 27 | 959.7 |
| 20260502214433 | 71 | 165 | 2.0 | 2.0 | 0.00 | 0.00 | 0.00 | 27 | 959.6 |
| 20260502213931 | 71 | 118 | 3.0 | 3.0 | 0.00 | 0.00 | 0.00 | 26 | 959.7 |
| 20260502213427 | 70 | 276 | 3.0 | 5.0 | 0.00 | 0.00 | 0.00 | 27 | 960.0 |
| 20260502212926 | 70 | 148 | 1.0 | 2.0 | 0.00 | 0.00 | 0.00 | 27 | 959.9 |
| 20260502212425 | 70 | 294 | 3.0 | 5.0 | 0.00 | 0.00 | 0.00 | 27 | 959.9 |
| 20260502211921 | 70 | 181 | 3.0 | 5.0 | 0.00 | 0.00 | 0.00 | 27 | 960.0 |
| 20260502211417 | 69 | 241 | 2.0 | 3.0 | 0.00 | 0.00 | 0.00 | 28 | 960.0 |
| 20260502210914 | 70 | 197 | 2.0 | 2.0 | 0.00 | 0.00 | 0.00 | 28 | 960.2 |
| 20260502210411 | 69 | 111 | 1.0 | 1.0 | 0.00 | 0.00 | 0.00 | 28 | 960.4 |
| 20260502205909 | 68 | 122 | 1.0 | 2.0 | 0.00 | 0.00 | 0.00 | 29 | 960.4 |
| 20260502205404 | 69 | 224 | 1.0 | 2.0 | 0.00 | 0.00 | 0.00 | 28 | 960.5 |
| 20260502204902 | 68 | 258 | 2.0 | 3.0 | 0.00 | 0.00 | 0.00 | 29 | 960.5 |
| 20260502204359 | 69 | 241 | 1.0 | 1.0 | 0.00 | 0.00 | 0.00 | 27 | 960.7 |
| 20260502203856 | 70 | 49 | 0.0 | 1.0 | 0.00 | 0.00 | 0.00 | 28 | 960.7 |
| 20260502203354 | 69 | 248 | 3.0 | 5.0 | 0.00 | 0.00 | 0.00 | 26 | 960.8 |
| 20260502202849 | 69 | 312 | 2.0 | 2.0 | 0.00 | 0.00 | 0.00 | 27 | 960.7 |
| 20260502202347 | 68 | 162 | 2.0 | 2.0 | 0.00 | 0.00 | 0.00 | 28 | 961.0 |
| 20260502201845 | 68 | 132 | 3.0 | 5.0 | 0.00 | 0.00 | 0.00 | 29 | 960.9 |
| 20260502201341 | 68 | 134 | 1.0 | 1.0 | 0.00 | 0.00 | 0.00 | 29 | 961.1 |
| 20260502200837 | 67 | 200 | 1.0 | 1.0 | 0.00 | 0.00 | 0.00 | 29 | 961.3 |
| 20260502200333 | 68 | 46 | 1.0 | 1.0 | 0.00 | 0.00 | 0.00 | 30 | 961.2 |
| 20260502195831 | 67 | 227 | 1.0 | 1.0 | 0.00 | 0.00 | 0.00 | 29 | 961.2 |
| 20260502195327 | 68 | 121 | 1.0 | 2.0 | 0.00 | 0.00 | 0.00 | 30 | 961.4 |
| 20260502194824 | 68 | 355 | 3.0 | 3.0 | 0.00 | 0.00 | 0.00 | 28 | 961.6 |
| 20260502194321 | 68 | 95 | 1.0 | 2.0 | 0.00 | 0.00 | 0.00 | 27 | 961.4 |
| 20260502193817 | 68 | 85 | 2.0 | 3.0 | 0.00 | 0.00 | 0.00 | 29 | 961.5 |
| 20260502193314 | 67 | 78 | 0.0 | 1.0 | 0.00 | 0.00 | 0.00 | 28 | 961.7 |
| 20260502192809 | 66 | 320 | 2.0 | 2.0 | 0.00 | 0.00 | 0.00 | 29 | 961.6 |
| 20260502192307 | 66 | 257 | 3.0 | 3.0 | 0.00 | 0.00 | 0.00 | 29 | 961.8 |
| 20260502191804 | 67 | 169 | 2.0 | 5.0 | 0.00 | 0.00 | 0.00 | 29 | 961.9 |
| 20260502191301 | 67 | 67 | 0.0 | 0.0 | 0.00 | 0.00 | 0.00 | 30 | 962.0 |
| 20260502190758 | 66 | 279 | 3.0 | 5.0 | 0.00 | 0.00 | 0.00 | 30 | 962.1 |
| 20260502190256 | 66 | 187 | 5.0 | 6.0 | 0.00 | 0.00 | 0.00 | 30 | 961.9 |
| 20260502185751 | 66 | 220 | 2.0 | 3.0 | 0.00 | 0.00 | 0.00 | 30 | 962.2 |
| 20260502185247 | 67 | 182 | 1.0 | 2.0 | 0.00 | 0.00 | 0.00 | 30 | 962.1 |
| 20260502184744 | 66 | 55 | 0.0 | 0.0 | 0.00 | 0.00 | 0.00 | 31 | 962.5 |
| 20260502184240 | 66 | 209 | 1.0 | 2.0 | 0.00 | 0.00 | 0.00 | 30 | 962.6 |
| 20260502183737 | 66 | 44 | 0.0 | 0.0 | 0.00 | 0.00 | 0.00 | 30 | 962.5 |
| 20260502183233 | 65 | 55 | 0.0 | 1.0 | 0.00 | 0.00 | 0.00 | 31 | 962.7 |
| 20260502182728 | 65 | 233 | 1.0 | 1.0 | 0.00 | 0.00 | 0.00 | 31 | 962.7 |
| 20260502182224 | 66 | 332 | 2.0 | 3.0 | 0.00 | 0.00 | 0.00 | 30 | 962.6 |
| 20260502181721 | 65 | 120 | 0.0 | 0.0 | 0.00 | 0.00 | 0.00 | 31 | 962.7 |
| 20260502181220 | 65 | 68 | 1.0 | 1.0 | 0.00 | 0.00 | 0.00 | 32 | 962.9 |
| 20260502180717 | 66 | 124 | 1.0 | 2.0 | 0.00 | 0.00 | 0.00 | 31 | 963.1 |
| 20260502180214 | 64 | 343 | 1.0 | 2.0 | 0.00 | 0.00 | 0.00 | 33 | 963.2 |
| 20260502170138 | 62 | 217 | 1.0 | 1.0 | 0.00 | 0.00 | 0.00 | 34 | 963.9 |
| 20260502164125 | 61 | 120 | 1.0 | 1.0 | 0.00 | 0.00 | 0.00 | 36 | 964.1 |
| 20260502163621 | 61 | 160 | 0.0 | 1.0 | 0.00 | 0.00 | 0.00 | 36 | 964.0 |
| 20260502163117 | 60 | 226 | 1.0 | 1.0 | 0.00 | 0.00 | 0.00 | 35 | 964.2 |
| 20260502162614 | 60 | 188 | 3.0 | 3.0 | 0.00 | 0.00 | 0.00 | 37 | 964.0 |
| 20260502162111 | 59 | 37 | 0.0 | 0.0 | 0.00 | 0.00 | 0.00 | 40 | 964.1 |
| 20260502161608 | 60 | 59 | 0.0 | 0.0 | 0.00 | 0.00 | 0.00 | 40 | 964.2 |
| 20260502161106 | 59 | 25 | 0.0 | 0.0 | 0.00 | 0.00 | 0.00 | 38 | 964.2 |
| 20260502160603 | 59 | 57 | 0.0 | 1.0 | 0.00 | 0.00 | 0.00 | 38 | 964.1 |
| 20260502152016 | 54 | 44 | 0.0 | 0.0 | 0.00 | 0.00 | 0.00 | 48 | 964.6 |
| 20260502151513 | 53 | 244 | 0.0 | 0.0 | 0.00 | 0.00 | 0.00 | 47 | 964.6 |
| 20260502151010 | 52 | 69 | 0.0 | 1.0 | 0.00 | 0.00 | 0.00 | 50 | 964.8 |
| 20260502150508 | 51 | 87 | 0.0 | 0.0 | 0.00 | 0.00 | 0.00 | 52 | 964.9 |
| 20260502130353 | 35 | 37 | 0.0 | 0.0 | 0.00 | 0.00 | 0.00 | 93 | 964.8 |
| 20260502123336 | 34 | 39 | 0.0 | 0.0 | 0.00 | 0.00 | 0.00 | 93 | 964.8 |
| 20260502122833 | 33 | 39 | 0.0 | 0.0 | 0.00 | 0.00 | 0.00 | 93 | 964.7 |
| 20260502122328 | 33 | 39 | 0.0 | 0.0 | 0.00 | 0.00 | 0.00 | 92 | 964.6 |
| 20260502121827 | 33 | 38 | 0.0 | 0.0 | 0.00 | 0.00 | 0.00 | 92 | 964.7 |
| 20260502121324 | 33 | 39 | 0.0 | 0.0 | 0.00 | 0.00 | 0.00 | 92 | 964.7 |
| 20260502120821 | 33 | 39 | 0.0 | 0.0 | 0.00 | 0.00 | 0.00 | 92 | 964.7 |
| 20260502120317 | 34 | 39 | 0.0 | 0.0 | 0.00 | 0.00 | 0.00 | 91 | 964.7 |
| 20260502115815 | 34 | 39 | 0.0 | 0.0 | 0.00 | 0.00 | 0.00 | 91 | 964.7 |
| 20260502115312 | 34 | 39 | 0.0 | 0.0 | 0.00 | 0.00 | 0.00 | 91 | 964.5 |
| 20260502114808 | 35 | 37 | 0.0 | 0.0 | 0.00 | 0.00 | 0.00 | 91 | 964.7 |
| 20260502114305 | 34 | 42 | 0.0 | 0.0 | 0.00 | 0.00 | 0.00 | 90 | 964.6 |
| 20260502113802 | 35 | 42 | 0.0 | 0.0 | 0.00 | 0.00 | 0.00 | 90 | 964.5 |
| 20260502113300 | 35 | 45 | 0.0 | 0.0 | 0.00 | 0.00 | 0.00 | 90 | 964.5 |
| 20260502112758 | 35 | 43 | 0.0 | 0.0 | 0.00 | 0.00 | 0.00 | 89 | 964.5 |
| 20260502112255 | 35 | 43 | 0.0 | 0.0 | 0.00 | 0.00 | 0.00 | 88 | 964.6 |
| 20260502111752 | 35 | 43 | 0.0 | 0.0 | 0.00 | 0.00 | 0.00 | 88 | 964.6 |
| 20260502111249 | 35 | 43 | 0.0 | 0.0 | 0.00 | 0.00 | 0.00 | 88 | 964.6 |
| 20260502110747 | 36 | 48 | 0.0 | 0.0 | 0.00 | 0.00 | 0.00 | 88 | 964.5 |
| 20260502110244 | 35 | 38 | 0.0 | 0.0 | 0.00 | 0.00 | 0.00 | 88 | 964.7 |
| 20260502105743 | 35 | 39 | 0.0 | 0.0 | 0.00 | 0.00 | 0.00 | 87 | 964.6 |
| 20260502105238 | 35 | 38 | 0.0 | 0.0 | 0.00 | 0.00 | 0.00 | 87 | 964.5 |
| 20260502104737 | 35 | 42 | 0.0 | 0.0 | 0.00 | 0.00 | 0.00 | 86 | 964.5 |
| 20260502104233 | 36 | 42 | 0.0 | 0.0 | 0.00 | 0.00 | 0.00 | 86 | 964.7 |
| 20260502103731 | 36 | 43 | 0.0 | 0.0 | 0.00 | 0.00 | 0.00 | 86 | 964.6 |
| 20260502103229 | 36 | 38 | 0.0 | 0.0 | 0.00 | 0.00 | 0.00 | 86 | 964.4 |
| 20260502102725 | 36 | 38 | 0.0 | 0.0 | 0.00 | 0.00 | 0.00 | 86 | 964.4 |
| 20260502102222 | 36 | 38 | 0.0 | 0.0 | 0.00 | 0.00 | 0.00 | 86 | 964.5 |
| 20260502101720 | 36 | 38 | 0.0 | 0.0 | 0.00 | 0.00 | 0.00 | 85 | 964.5 |
| 20260502101218 | 36 | 41 | 0.0 | 0.0 | 0.00 | 0.00 | 0.00 | 85 | 964.4 |
| 20260502100716 | 37 | 40 | 0.0 | 0.0 | 0.00 | 0.00 | 0.00 | 84 | 964.4 |
| 20260502100214 | 37 | 37 | 0.0 | 0.0 | 0.00 | 0.00 | 0.00 | 84 | 964.4 |
| 20260502091148 | 39 | 40 | 0.0 | 0.0 | 0.00 | 0.00 | 0.00 | 82 | 964.6 |
| 20260502090645 | 39 | 50 | 0.0 | 0.0 | 0.00 | 0.00 | 0.00 | 82 | 964.5 |
| 20260502090142 | 39 | 49 | 0.0 | 0.0 | 0.00 | 0.00 | 0.00 | 83 | 964.4 |
| 20260502080104 | 40 | 45 | 0.0 | 0.0 | 0.00 | 0.00 | 0.00 | 81 | 964.3 |
| 20260502071038 | 41 | 45 | 0.0 | 0.0 | 0.00 | 0.00 | 0.00 | 81 | 964.2 |
| 20260502070535 | 41 | 46 | 0.0 | 0.0 | 0.00 | 0.00 | 0.00 | 81 | 964.1 |
| 20260502070033 | 41 | 49 | 0.0 | 0.0 | 0.00 | 0.00 | 0.00 | 81 | 964.1 |
| 20260502065532 | 41 | 42 | 0.0 | 0.0 | 0.00 | 0.00 | 0.00 | 80 | 964.0 |
| 20260502065029 | 41 | 42 | 0.0 | 0.0 | 0.00 | 0.00 | 0.00 | 79 | 964.0 |
| 20260502064527 | 42 | 42 | 0.0 | 0.0 | 0.00 | 0.00 | 0.00 | 79 | 964.2 |
| 20260502064018 | 42 | 38 | 0.0 | 0.0 | 0.00 | 0.00 | 0.00 | 78 | 964.0 |
| 20260502063516 | 43 | 38 | 0.0 | 0.0 | 0.00 | 0.00 | 0.00 | 77 | 963.9 |
| 20260502063014 | 43 | 39 | 0.0 | 0.0 | 0.00 | 0.00 | 0.00 | 76 | 964.2 |
| 20260502062510 | 44 | 39 | 0.0 | 0.0 | 0.00 | 0.00 | 0.00 | 74 | 964.0 |
| 20260502062009 | 45 | 49 | 0.0 | 0.0 | 0.00 | 0.00 | 0.00 | 73 | 963.9 |
| 20260502061506 | 45 | 49 | 0.0 | 0.0 | 0.00 | 0.00 | 0.00 | 73 | 964.0 |
| 20260502061003 | 45 | 58 | 0.0 | 0.0 | 0.00 | 0.00 | 0.00 | 73 | 963.9 |
| 20260502060458 | 45 | 44 | 0.0 | 0.0 | 0.00 | 0.00 | 0.00 | 73 | 963.9 |
| 20260502055955 | 45 | 47 | 0.0 | 0.0 | 0.00 | 0.00 | 0.00 | 73 | 963.9 |
| 20260502055452 | 45 | 39 | 0.0 | 0.0 | 0.00 | 0.00 | 0.00 | 72 | 964.0 |
| 20260502054946 | 46 | 36 | 0.0 | 0.0 | 0.00 | 0.00 | 0.00 | 71 | 963.9 |
| 20260502054444 | 46 | 35 | 0.0 | 0.0 | 0.00 | 0.00 | 0.00 | 71 | 964.1 |
| 20260502053941 | 46 | 22 | 0.0 | 0.0 | 0.00 | 0.00 | 0.00 | 71 | 964.0 |
| 20260502053438 | 46 | 42 | 0.0 | 0.0 | 0.00 | 0.00 | 0.00 | 70 | 963.8 |
| 20260502052936 | 47 | 40 | 0.0 | 0.0 | 0.00 | 0.00 | 0.00 | 69 | 964.0 |
| 20260502052434 | 48 | 37 | 0.0 | 0.0 | 0.00 | 0.00 | 0.00 | 68 | 963.8 |
| 20260502051932 | 48 | 39 | 0.0 | 0.0 | 0.00 | 0.00 | 0.00 | 68 | 963.7 |
| 20260502051430 | 48 | 36 | 0.0 | 0.0 | 0.00 | 0.00 | 0.00 | 66 | 963.7 |
| 20260502050926 | 50 | 33 | 0.0 | 0.0 | 0.00 | 0.00 | 0.00 | 65 | 963.7 |
| 20260502050423 | 50 | 23 | 0.0 | 0.0 | 0.00 | 0.00 | 0.00 | 64 | 963.9 |
| 20260502045920 | 50 | 35 | 0.0 | 0.0 | 0.00 | 0.00 | 0.00 | 64 | 963.7 |
| 20260502045417 | 50 | 34 | 0.0 | 0.0 | 0.00 | 0.00 | 0.00 | 65 | 963.7 |
| 20260502044914 | 49 | 20 | 0.0 | 0.0 | 0.00 | 0.00 | 0.00 | 66 | 963.6 |
| 20260502044409 | 49 | 42 | 0.0 | 0.0 | 0.00 | 0.00 | 0.00 | 67 | 963.5 |